EW5209 Weather Reports


Display with metric or nautical units.
time (UTC)temp
F
wind
direction
speed
MPH
gust
MPH
rain 1hr
in
rain 24hr
in
rain mn
in
humidity
%
barometer
mb
20260505163356 78 151 7.0 18.0 0.00 0.00 0.00 77 1005.9
20260505163232 78 116 7.0 19.0 0.00 0.00 0.00 76 1005.9
20260505161730 78 229 8.0 18.0 0.00 0.00 0.00 77 1005.7
20260505161231 78 183 8.0 18.0 0.00 0.00 0.00 78 1005.7
20260505160730 77 190 8.0 18.0 0.00 0.00 0.00 78 1005.6
20260505160231 77 176 7.0 18.0 0.00 0.00 0.00 78 1005.7
20260505153228 77 246 6.0 15.0 0.00 0.00 0.00 78 1005.9
20260505152726 76 148 5.0 18.0 0.00 0.00 0.00 78 1006.0
20260505152226 76 269 5.0 18.0 0.00 0.00 0.00 79 1006.1
20260505151726 76 150 7.0 18.0 0.00 0.00 0.00 80 1006.0
20260505151227 76 72 8.0 18.0 0.00 0.00 0.00 80 1005.7
20260505150726 76 148 7.0 19.0 0.00 0.00 0.00 80 1005.7
20260505150227 76 197 8.0 19.0 0.00 0.00 0.00 80 1005.5
20260505130220 72 256 5.0 14.0 0.00 0.00 0.00 83 1005.1
20260505124220 72 212 4.0 11.0 0.00 0.00 0.00 83 1005.0
20260505123718 0 0.0 0.0 0.00 0.00 0.00 1005.0
20260505123219 0 0.0 0.0 0.00 0.00 0.00 1004.9
20260505122711 0 0.0 0.0 0.00 0.00 0.00 1004.7
20260505122122 0 0.0 0.0 0.00 0.00 0.00 1004.8
20260505122024 0 0.0 0.0 0.00 0.00 0.00 1004.8
20260505121628 0 0.0 0.0 0.00 0.00 0.00 1004.9
20260505121127 0 0.0 0.0 0.00 0.00 0.00 1004.8
20260505120021 0 0.0 0.0 0.00 0.00 0.00 1004.8
20260505115519 0 0.0 0.0 0.00 0.00 0.00 1004.6
20260505115020 0 0.0 0.0 0.00 0.00 0.00 1004.7
20260505115016 0 0.0 0.0 0.00 0.00 0.00 1004.7
20260505114622 0 0.0 0.0 0.00 0.00 0.00 1004.8
20260505113516 0 0.0 0.0 0.00 0.00 0.00 1004.7
20260505113014 0 0.0 0.0 0.00 0.00 0.00 1004.7
20260505112923 0 0.0 0.0 0.00 0.00 0.00 1004.5
20260505112527 0 0.0 0.0 0.00 0.00 0.00 1004.7
20260505112024 0 0.0 0.0 0.00 0.00 0.00 1004.6
20260505110914 0 0.0 0.0 0.00 0.00 0.00 1004.6
20260505110316 0 0.0 0.0 0.00 0.00 0.00 1004.6
20260505102120 71 125 4.0 11.0 0.00 0.00 0.00 83 1004.6
20260505101619 71 170 4.0 11.0 0.00 0.00 0.00 83 1004.4
20260505101124 71 217 5.0 12.0 0.00 0.00 0.00 83 1004.7
20260505101120 71 171 5.0 11.0 0.00 0.00 0.00 83 1004.5
20260505100120 71 142 5.0 16.0 0.00 0.00 0.00 83 1004.9
20260505095617 71 140 5.0 16.0 0.00 0.00 0.00 83 1004.9
20260505095119 71 273 5.0 16.0 0.00 0.00 0.00 83 1004.7
20260505094617 71 205 6.0 16.0 0.00 0.00 0.00 83 1004.9
20260505094117 71 101 6.0 14.0 0.00 0.00 0.00 83 1004.9
20260505093618 71 120 5.0 14.0 0.00 0.00 0.00 83 1004.9
20260505093117 71 231 4.0 19.0 0.00 0.00 0.00 83 1004.8
20260505092617 71 243 5.0 19.0 0.00 0.00 0.00 83 1004.8
20260505092123 71 217 5.0 19.0 0.00 0.00 0.00 83 1004.8
20260505092119 71 171 6.0 19.0 0.00 0.00 0.00 83 1004.9
20260505091118 71 226 5.0 13.0 0.00 0.00 0.00 83 1004.7
20260505090615 71 142 5.0 13.0 0.00 0.00 0.00 83 1004.8
20260505090120 71 122 6.0 13.0 0.00 0.00 0.00 83 1004.8
20260505090116 71 176 5.0 13.0 0.00 0.00 0.00 83 1004.8
20260505085116 71 137 6.0 13.0 0.00 0.00 0.00 83 1004.7
20260505084616 71 103 6.0 15.0 0.00 0.00 0.00 83 1004.8
20260505084115 71 227 6.0 15.0 0.00 0.00 0.00 83 1004.8
20260505083615 71 135 7.0 15.0 0.00 0.00 0.00 83 1004.9
20260505083115 71 140 7.0 15.0 0.00 0.00 0.00 83 1004.8
20260505082615 71 160 6.0 15.0 0.00 0.00 0.00 83 1004.7
20260505082238 71 159 5.0 14.0 0.00 0.00 0.00 83 1005.1
20260505082120 71 226 6.0 19.0 0.00 0.00 0.00 83 1005.1
20260505082116 71 198 6.0 19.0 0.00 0.00 0.00 83 1004.9
20260505081245 71 145 5.0 13.0 0.00 0.00 0.00 83 1005.4
20260505081234 71 264 5.0 13.0 0.00 0.00 0.00 83 1005.2
20260505080615 71 194 5.0 13.0 0.00 0.00 0.00 83 1005.1
20260505075114 71 231 5.0 12.0 0.00 0.00 0.00 83 1005.3
20260505074615 71 199 6.0 15.0 0.00 0.00 0.00 83 1005.4
20260505074115 71 114 6.0 15.0 0.00 0.00 0.00 83 1005.5
20260505073612 71 195 5.0 15.0 0.00 0.00 0.00 83 1005.5
20260505073114 71 204 5.0 16.0 0.00 0.00 0.00 83 1005.7
20260505072614 71 219 5.0 16.0 0.00 0.00 0.00 83 1005.7
20260505072113 71 136 6.0 16.0 0.00 0.00 0.00 83 1005.9
20260505071619 71 212 5.0 14.0 0.00 0.00 0.00 83 1006.0
20260505071613 71 143 6.0 16.0 0.00 0.00 0.00 83 1006.0
20260505070613 71 119 5.0 14.0 0.00 0.00 0.00 83 1006.0
20260505070112 71 218 4.0 13.0 0.00 0.00 0.00 83 1005.9
20260505065613 71 203 5.0 12.0 0.00 0.00 0.00 83 1006.2
20260505065112 71 184 5.0 16.0 0.00 0.00 0.00 83 1006.2
20260505064612 71 161 5.0 16.0 0.00 0.00 0.00 83 1006.1
20260505064112 71 141 5.0 13.0 0.00 0.00 0.00 83 1006.3
20260505063614 71 248 5.0 12.0 0.00 0.00 0.00 82 1006.3
20260505063609 71 142 4.0 12.0 0.00 0.00 0.00 83 1006.3
20260505062610 72 209 4.0 12.0 0.00 0.00 0.00 82 1006.4
20260505062108 72 221 4.0 12.0 0.00 0.00 0.00 82 1006.5
20260505061610 72 107 4.0 11.0 0.00 0.00 0.00 82 1006.5
20260505061109 72 101 4.0 11.0 0.00 0.00 0.00 82 1006.4
20260505060608 72 134 4.0 11.0 0.00 0.00 0.00 82 1006.4
20260505060109 72 91 4.0 12.0 0.00 0.00 0.00 82 1006.4
20260505055609 72 143 4.0 12.0 0.00 0.00 0.00 82 1006.4
20260505055110 72 71 4.0 13.0 0.00 0.00 0.00 82 1006.5
20260505054610 72 169 3.0 13.0 0.00 0.00 0.00 82 1006.5
20260505054110 72 184 3.0 10.0 0.00 0.00 0.00 81 1006.6
20260505053610 72 139 4.0 12.0 0.00 0.00 0.00 81 1006.7
20260505053109 72 134 4.0 12.0 0.00 0.00 0.00 81 1006.7
20260505052609 72 254 4.0 12.0 0.00 0.00 0.00 81 1006.7
20260505052109 72 250 4.0 12.0 0.00 0.00 0.00 81 1006.6
20260505051610 72 198 4.0 11.0 0.00 0.00 0.00 81 1006.6
20260505051109 72 143 4.0 10.0 0.00 0.00 0.00 80 1006.6
20260505050610 72 233 4.0 10.0 0.00 0.00 0.00 80 1006.5
20260505050109 72 192 4.0 10.0 0.00 0.00 0.00 80 1006.5
20260505041613 73 203 3.0 10.0 0.00 0.00 0.00 78 1007.0
20260505041606 73 105 3.0 10.0 0.00 0.00 0.00 78 1006.9
20260505041107 73 166 3.0 10.0 0.00 0.00 0.00 78 1007.0
20260505040731 73 160 4.0 10.0 0.00 0.00 0.00 77 1006.9
20260505035607 73 140 4.0 9.0 0.00 0.00 0.00 77 1006.6
20260505035103 73 128 4.0 9.0 0.00 0.00 0.00 77 1006.9
20260505034604 73 206 4.0 9.0 0.00 0.00 0.00 77 1006.8
20260505034105 73 206 4.0 11.0 0.00 0.00 0.00 76 1006.6
20260505033603 73 203 4.0 11.0 0.00 0.00 0.00 76 1006.6
20260505033109 74 108 4.0 11.0 0.00 0.00 0.00 76 1006.7
20260505032723 74 163 3.0 12.0 0.00 0.00 0.00 75 1006.9
20260505032609 74 166 3.0 11.0 0.00 0.00 0.00 75 1006.9
20260505032603 74 101 4.0 11.0 0.00 0.00 0.00 76 1006.7
20260505031103 74 121 4.0 12.0 0.00 0.00 0.00 75 1006.9
20260505030604 74 130 4.0 12.0 0.00 0.00 0.00 75 1006.9
20260505030104 74 181 5.0 12.0 0.00 0.00 0.00 75 1006.9
20260505025603 74 225 5.0 12.0 0.00 0.00 0.00 75 1006.7
20260505025104 74 120 4.0 12.0 0.00 0.00 0.00 74 1006.6
20260505024601 74 119 3.0 12.0 0.00 0.00 0.00 74 1006.7
20260505024103 74 152 3.0 13.0 0.00 0.00 0.00 74 1006.6
20260505023601 74 191 3.0 13.0 0.00 0.00 0.00 74 1006.5
20260505023100 74 107 4.0 13.0 0.00 0.00 0.00 74 1006.5
20260505022601 74 195 4.0 13.0 0.00 0.00 0.00 74 1006.4
20260505022101 74 134 4.0 10.0 0.00 0.00 0.00 74 1006.5
20260505021603 74 115 4.0 10.0 0.00 0.00 0.00 73 1006.4
20260505021102 74 150 4.0 9.0 0.00 0.00 0.00 73 1006.4
20260505020600 74 126 4.0 9.0 0.00 0.00 0.00 73 1006.4
20260505020104 75 147 3.0 11.0 0.00 0.00 0.00 72 1006.4
20260505020100 75 119 4.0 11.0 0.00 0.00 0.00 73 1006.4
20260505015717 75 154 3.0 8.0 0.00 0.00 0.00 72 1006.5
20260505014555 75 118 4.0 8.0 0.00 0.00 0.00 72 1006.4
20260505014056 75 108 3.0 8.0 0.00 0.00 0.00 72 1006.3
20260505013556 75 121 2.0 11.0 0.00 0.00 0.00 71 1006.3
20260505013055 75 129 2.0 11.0 0.00 0.00 0.00 71 1006.4
20260505012600 76 195 4.0 11.0 0.00 0.00 0.00 70 1006.3
20260505012554 76 188 3.0 11.0 0.00 0.00 0.00 70 1006.4
20260505011552 76 76 3.0 9.0 0.00 0.00 0.00 70 1006.4
20260505011051 76 112 3.0 11.0 0.00 0.00 0.00 69 1006.4
20260505010556 76 124 3.0 9.0 0.00 0.00 0.00 69 1006.4
20260505010551 76 169 3.0 11.0 0.00 0.00 0.00 69 1006.4
20260505005551 76 134 3.0 14.0 0.00 0.00 0.00 68 1006.5
20260505005051 77 75 3.0 14.0 0.00 0.00 0.00 68 1006.6
20260505004556 77 76 3.0 14.0 0.00 0.00 0.00 67 1006.6
20260505004550 77 127 3.0 14.0 0.00 0.00 0.00 68 1006.6
20260505003551 78 141 3.0 12.0 0.00 0.00 0.00 66 1006.6
20260505003053 78 107 3.0 12.0 0.00 0.00 0.00 66 1006.7
20260505002549 78 240 4.0 12.0 0.00 0.00 0.00 65 1006.7
20260505002050 78 154 4.0 12.0 0.00 0.00 0.00 65 1006.6
20260505001548 78 162 4.0 12.0 0.00 0.00 0.00 64 1006.8
20260505001048 78 77 5.0 14.0 0.00 0.00 0.00 65 1006.8
20260505000548 78 127 6.0 14.0 0.00 0.00 0.00 64 1006.7
20260505000048 78 127 5.0 14.0 0.00 0.00 0.00 64 1006.7
20260504235546 78 101 5.0 14.0 0.00 0.00 0.00 64 1006.8
20260504235046 79 70 4.0 14.0 0.00 0.00 0.00 63 1006.8
20260504234549 79 164 4.0 12.0 0.00 0.00 0.00 64 1006.9
20260504234046 79 123 4.0 15.0 0.00 0.00 0.00 63 1007.1
20260504233548 79 148 5.0 15.0 0.00 0.00 0.00 63 1007.0
20260504233048 79 133 6.0 15.0 0.00 0.00 0.00 62 1007.0
20260504232548 79 237 5.0 15.0 0.00 0.00 0.00 61 1007.0
20260504232047 80 118 5.0 15.0 0.00 0.00 0.00 62 1006.9
20260504231548 80 134 6.0 17.0 0.00 0.00 0.00 61 1007.0
20260504231047 80 128 6.0 17.0 0.00 0.00 0.00 61 1007.2
20260504230547 80 193 6.0 22.0 0.00 0.00 0.00 60 1007.3
20260504230054 80 205 7.0 16.0 0.00 0.00 0.00 61 1007.3
20260504230048 80 201 6.0 22.0 0.00 0.00 0.00 60 1007.3
20260504225052 80 217 7.0 16.0 0.00 0.00 0.00 59 1007.4
20260504225048 80 146 8.0 16.0 0.00 0.00 0.00 60 1007.5
20260504224047 81 233 5.0 13.0 0.00 0.00 0.00 59 1007.4
20260504223547 81 213 5.0 13.0 0.00 0.00 0.00 57 1007.5
20260504223102 82 162 5.0 15.0 0.00 0.00 0.00 58 1007.3
20260504223051 82 116 4.0 15.0 0.00 0.00 0.00 57 1007.3
20260504222047 82 224 5.0 13.0 0.00 0.00 0.00 58 1007.4
20260504221548 81 193 5.0 13.0 0.00 0.00 0.00 59 1007.6
20260504221048 81 221 6.0 19.0 0.00 0.00 0.00 58 1007.7
20260504220545 82 194 7.0 19.0 0.00 0.00 0.00 57 1007.7
20260504220045 82 214 8.0 19.0 0.00 0.00 0.00 57 1007.7
20260504215544 82 198 7.0 19.0 0.00 0.00 0.00 57 1007.8
20260504215043 82 144 7.0 16.0 0.00 0.00 0.00 57 1007.7
20260504214544 82 165 7.0 16.0 0.00 0.00 0.00 58 1007.8
20260504214539 82 97 7.0 16.0 0.00 0.00 0.00 58 1007.8
20260504214201 82 158 6.0 15.0 0.00 0.00 0.00 58 1008.0
20260504213040 82 65 7.0 15.0 0.00 0.00 0.00 57 1007.9
20260504213035 82 141 7.0 16.0 0.00 0.00 0.00 57 1008.0
20260504212655 82 203 7.0 20.0 0.00 0.00 0.00 57 1008.1
20260504211535 82 151 7.0 20.0 0.00 0.00 0.00 57 1008.1
20260504211035 82 95 6.0 19.0 0.00 0.00 0.00 56 1008.2
20260504210534 82 227 6.0 17.0 0.00 0.00 0.00 57 1008.3
20260504210032 82 186 7.0 20.0 0.00 0.00 0.00 57 1008.5
20260504205533 81 168 7.0 20.0 0.00 0.00 0.00 57 1008.5
20260504205032 81 203 9.0 20.0 0.00 0.00 0.00 59 1008.7
20260504204536 81 240 8.0 20.0 0.00 0.00 0.00 57 1008.8
20260504204531 82 99 6.0 18.0 0.00 0.00 0.00 57 1008.9
20260504203532 82 146 6.0 18.0 0.00 0.00 0.00 58 1009.1
20260504203029 82 205 6.0 18.0 0.00 0.00 0.00 55 1009.2
20260504202528 81 232 6.0 15.0 0.00 0.00 0.00 56 1009.3
20260504202025 81 246 6.0 15.0 0.00 0.00 0.00 57 1009.3
20260504201533 81 172 6.0 18.0 0.00 0.00 0.00 55 1009.7
20260504201525 81 282 6.0 16.0 0.00 0.00 0.00 58 1009.6
20260504201025 80 205 7.0 18.0 0.00 0.00 0.00 59 1009.6
20260504200026 81 162 6.0 18.0 0.00 0.00 0.00 57 1009.9
20260504195525 81 193 6.0 18.0 0.00 0.00 0.00 55 1009.9
20260504195029 80 150 7.0 20.0 0.00 0.00 0.00 56 1010.0
20260504195025 80 245 6.0 15.0 0.00 0.00 0.00 57 1009.9
20260504194641 80 157 7.0 20.0 0.00 0.00 0.00 55 1010.0
20260504193522 80 243 8.0 20.0 0.00 0.00 0.00 54 1010.1
20260504193022 80 220 7.0 20.0 0.00 0.00 0.00 53 1010.1
20260504192528 80 173 6.0 19.0 0.00 0.00 0.00 52 1010.2
20260504192523 80 140 7.0 19.0 0.00 0.00 0.00 54 1010.2
20260504191523 80 221 6.0 16.0 0.00 0.00 0.00 54 1010.4
20260504191024 80 283 6.0 16.0 0.00 0.00 0.00 53 1010.5
20260504190522 80 134 6.0 16.0 0.00 0.00 0.00 55 1010.7
20260504190024 80 164 5.0 17.0 0.00 0.00 0.00 54 1010.6
20260504185520 80 193 6.0 17.0 0.00 0.00 0.00 52 1010.8
20260504185021 79 127 8.0 17.0 0.00 0.00 0.00 53 1010.8
20260504184521 79 129 7.0 17.0 0.00 0.00 0.00 54 1010.8
20260504184020 79 270 6.0 13.0 0.00 0.00 0.00 53 1010.9
20260504183520 79 134 6.0 15.0 0.00 0.00 0.00 54 1010.9
20260504183020 79 64 6.0 15.0 0.00 0.00 0.00 54 1011.2
20260504182521 78 201 7.0 19.0 0.00 0.00 0.00 56 1011.3
20260504182021 78 234 7.0 19.0 0.00 0.00 0.00 53 1011.1
20260504181520 78 165 7.0 19.0 0.00 0.00 0.00 53 1011.2
20260504181021 78 184 7.0 19.0 0.00 0.00 0.00 52 1011.3
20260504180519 78 117 6.0 19.0 0.00 0.00 0.00 52 1011.5
20260504180019 78 315 6.0 19.0 0.00 0.00 0.00 54 1011.6
20260504175523 78 217 7.0 19.0 0.00 0.00 0.00 52 1011.7
20260504175517 78 212 6.0 17.0 0.00 0.00 0.00 52 1011.6
20260504174519 78 207 7.0 19.0 0.00 0.00 0.00 51 1011.9
20260504174018 78 190 7.0 19.0 0.00 0.00 0.00 52 1011.9
20260504173520 77 262 8.0 19.0 0.00 0.00 0.00 50 1012.1
20260504173020 77 200 7.0 16.0 0.00 0.00 0.00 49 1012.0
20260504172518 77 174 7.0 17.0 0.00 0.00 0.00 48 1012.1
20260504172023 77 191 6.0 16.0 0.00 0.00 0.00 48 1012.2
20260504172019 77 203 7.0 17.0 0.00 0.00 0.00 47 1012.1
20260504171018 77 146 6.0 16.0 0.00 0.00 0.00 50 1012.6
20260504170518 76 167 6.0 16.0 0.00 0.00 0.00 51 1012.8